Regional Weather Roundup
Issued by NWS

Home | Current Version | Previous Version | Graphics & Text | Print | Product List | Glossary On
Versions: 1 2 3 4 5 6 7 8 9 10 11 12 13 14 15 16 17 18 19 20 21 22 23 24 25 26 27 28 29 30 31 32 33 34 35 36 37 38 39 40 41 42 43 44 45 46 47 48 49 50
433
ASUS45 KBOU 231207
RWRCO

WEATHER ROUNDUP FOR COLORADO
NATIONAL WEATHER SERVICE DENVER/BOULDER CO
600 AM MDT WED AUG 23 2017

NOTE: "FAIR" INDICATES FEW OR NO CLOUDS BELOW 12000 FEET WITH NO
SIGNIFICANT WEATHER AND/OR OBSTRUCTIONS TO VISIBILITY.

COZ001>005-013-030-031-231300-
...NORTHWEST COLORADO...

CITY           SKY/WX    TMP DP  RH WIND       PRES   REMARKS
CRAIG          FAIR      53  44  71 CALM      30.31S
HAYDEN         FAIR      57  41  55 E10       30.33F
MEEKER         MOCLDY    57  44  62 E3        30.32S
RABBIT EARS PA CLOUDY    50  36  57 W9        30.58F
STEAMBOAT SPGS FAIR      50  41  70 NW3       30.35S
WALDEN         FAIR      41  34  75 E5        30.43F
$$

COZ006>008-011-231300-
...WEST CENTRAL VALLEYS...

CITY           SKY/WX    TMP DP  RH WIND       PRES   REMARKS
GRAND JUNCTION FAIR      64  51  62 SE10      30.22R
MONTROSE       CLOUDY    56  47  71 SE3       30.31S
EAGLE          MOCLDY    55  41  59 CALM      30.38R
RIFLE          FAIR      58  47  66 CALM      30.28S
DELTA          FAIR      60  46  58 NE5       30.28R
NUCLA          LGT RAIN  57  46  67 E9        30.33S
$$

COZ017>023-064>068-231300-
...SOUTHWEST COLORADO...

CITY           SKY/WX    TMP DP  RH WIND       PRES   REMARKS
DURANGO        FAIR      50  43  77 CALM      30.37R
CORTEZ         FAIR      49  46  90 NE3       30.29S
PAGOSA SPRINGS FAIR      46  45  93 CALM      30.44S
TELLURIDE      FAIR      50  42  74 SE7       30.53S
WOLF CREEK PAS FAIR      41  37  87 SW10      30.72S
$$

COZ009-010-012-014-032>034-037-058>063-231300-
...CENTRAL COLORADO...

CITY           SKY/WX    TMP DP  RH WIND       PRES   REMARKS
ASPEN          FAIR      52  43  71 CALM      30.41R
BUENA VISTA    CLOUDY    46  42  84 NW3       30.43F
COPPER MTN     CLOUDY    52  32  46 NW5       30.69S
BERTHOUD PASS  CLOUDY    41  36  81 NW7       30.71S
COTTONWOOD PAS CLOUDY    54  36  50 SW6       30.54S
GUNNISON       FAIR      42  39  89 CALM      30.47S
KREMMLING      CLOUDY    54  46  76 CALM      30.42R
LEADVILLE      CLOUDY    36  33  89 NE7       30.54S
SALIDA         FAIR      52  43  71 N9        30.48S
SUNLIGHT       CLOUDY    46  34  61 S5        30.63R
WILKERSON PASS CLOUDY    46  34  61 W5        30.64F
$$

COZ069>075-231300-
...SAN LUIS VALLEY/SANGRE DE CRISTO MOUNTAINS...

CITY           SKY/WX    TMP DP  RH WIND       PRES   REMARKS
ALAMOSA        FAIR      42  42 100 NE5       30.43R FOG
DEL NORTE      FAIR      47  43  87 W9        30.46S
LA VETA PASS   NOT AVBL
SAGUACHE         N/A    N/A N/A N/A MISG        N/A
$$

COZ035-036-038>040-231300-
...NORTHERN COLORADO FRONT RANGE...

CITY           SKY/WX    TMP DP  RH WIND       PRES   REMARKS
DENVER INTL AP MOCLDY    66  47  50 SW9       30.18S
DMNS CITY PARK   N/A     65  46  51 E8        30.18S
AURORA         MOCLDY    64  49  57 S12       30.20S
FRONT RANGE AP FAIR      66  50  55 S9G17     30.19S
ERIE MUNI ARPT FAIR      61  53  76 CALM      30.22S
BOULDER MUN AP FAIR      64  46  52 CALM      30.18R
CENTENNIAL     MOCLDY    63  48  58 S5        30.21F
BROOMFIELD     FAIR      64  55  72 CALM      30.20S
FORT COLLINS   FAIR      55  53  93 NW3       30.18R
LONGMONT       FAIR      62  53  72 CALM      30.19R
$$

COZ041-046-047-076>085-087-088-231300-
...PIKES PEAK/PALMER DIVIDE AND SOUTHERN FOOTHILLS...

CITY           SKY/WX    TMP DP  RH WIND       PRES   REMARKS
COLO. SPRINGS  MOCLDY    59  52  77 E6        30.28F
A. F. ACADEMY  CLOUDY    55  49  81 CALM      30.29S
SCHRIEVER AFB  MOCLDY    56  51  82 MISG      30.28F
CHEYENNE MTN   MOCLDY    58  47  66 CALM      30.26S
ELLICOTT       FAIR     N/A N/A N/A S8        30.27S
FALCON         FAIR      55  51  86 CALM      30.32F
FORT CARSON    CLOUDY    54  50  86 N5        30.25F
LIMON          FAIR      54  53  97 SE9       30.24S
MONUMENT HILL  FAIR      55  48  76 S8        30.32S
CANON CITY     CLEAR     63  48  59 W13       30.23S
WALSENBURG     PTSUNNY   59  48  67 W8        30.28R
TRINIDAD       FAIR      54  47  77 W10       30.28S
$$

COZ042>045-048>051-090-091-231300-
...NORTHEAST COLORADO...

CITY           SKY/WX    TMP DP  RH WIND       PRES   REMARKS
GREELEY ARPT   FAIR      54  53  97 N5        30.16S
AKRON          FAIR      56  52  86 S10       30.16F
BURLINGTON     FAIR      58  54  86 S16       30.20F
WRAY           FAIR      55  48  76 SE8       30.18S
YUMA           FAIR      52  50  93 SE6       30.17S
STERLING       FAIR      55  54  94 S6        30.12F
HOLYOKE        FAIR      55  50  82 S10       30.17F
FORT MORGAN    FAIR      55  53  91 CALM      30.15S
$$

COZ086-089-092>099-231300-
...SOUTHEAST COLORADO...

CITY           SKY/WX    TMP DP  RH WIND       PRES   REMARKS
PUEBLO         FAIR      56  50  80 CALM      30.20S
LA JUNTA       FAIR      59  56  89 SE8       30.19S
LAMAR          FAIR      63  58  83 SE7       30.18F
SPRINGFIELD      N/A     62  62 100 S15       30.25S
$$




USA.gov is the U.S. government's official web portal to all federal, state and local government web resources and services.